FW2048 Weather Reports


Display with metric or nautical units.
time (UTC)temp
F
wind
direction
speed
MPH
gust
MPH
rain 1hr
in
rain 24hr
in
rain mn
in
humidity
%
barometer
mb
20260510174544 71 0 0.0 0.0 0.00 0.00 0.00 64 1012.7
20260510173043 70 0 0.0 0.0 0.00 0.00 0.00 62 1012.7
20260510171547 70 0 0.0 0.0 0.00 0.00 0.00 63 1012.4
20260510170039 70 0 0.0 0.0 0.00 0.00 0.00 64 1012.4
20260510164539 69 0 0.0 0.0 0.00 0.00 0.00 65 1012.4
20260510163038 70 0 0.0 0.0 0.00 0.00 0.00 66 1012.2
20260510161545 69 0 0.0 0.0 0.00 0.00 0.00 65 1012.2
20260510160041 68 0 0.0 0.0 0.00 0.00 0.00 67 1012.2
20260510154538 67 0 0.0 0.0 0.00 0.00 0.00 66 1012.2
20260510153040 67 0 0.0 0.0 0.00 0.00 0.00 67 1012.2
20260510151542 67 0 0.0 0.0 0.00 0.00 0.00 68 1012.2
20260510150054 67 0 0.0 0.0 0.00 0.00 0.00 69 1012.2
20260510144544 66 0 0.0 0.0 0.00 0.00 0.00 72 1011.9
20260510143043 67 0 0.0 0.0 0.00 0.00 0.00 74 1011.7
20260510141542 65 0 0.0 0.0 0.00 0.00 0.00 73 1011.4
20260510140042 64 0 0.0 0.0 0.00 0.00 0.00 77 1011.2
20260510134538 63 0 0.0 0.0 0.00 0.00 0.00 76 1011.0
20260510133045 63 0 0.0 0.0 0.00 0.00 0.00 75 1010.9
20260510131544 63 0 0.0 0.0 0.00 0.00 0.00 74 1010.8
20260510130042 63 0 0.0 0.0 0.00 0.00 0.00 74 1010.3
20260510124539 63 0 0.0 0.0 0.00 0.00 0.00 74 1010.4
20260510123046 61 0 0.0 0.0 0.00 0.00 0.00 78 1010.3
20260510121545 60 0 0.0 0.0 0.00 0.00 0.00 83 1010.4
20260510120044 59 0 0.0 0.0 0.00 0.00 0.00 84 1010.1
20260510114550 58 0 0.0 0.0 0.00 0.00 0.00 83 1009.9
20260510113041 58 0 0.0 0.0 0.00 0.00 0.00 83 1009.8
20260510111540 59 0 0.0 0.0 0.00 0.00 0.00 82 1009.8
20260510110046 58 0 0.0 0.0 0.00 0.00 0.00 81 1009.7
20260510104547 59 0 0.0 0.0 0.00 0.00 0.00 79 1009.5
20260510103045 59 0 0.0 0.0 0.00 0.00 0.00 78 1009.2
20260510101544 58 0 0.0 0.0 0.00 0.00 0.00 78 1009.0
20260510100045 58 0 0.0 0.0 0.00 0.00 0.00 77 1008.8
20260510094546 58 0 0.0 0.0 0.00 0.00 0.00 78 1008.6
20260510093059 58 0 0.0 0.0 0.00 0.00 0.00 79 1008.5
20260510091545 58 0 0.0 0.0 0.00 0.00 0.00 78 1008.6
20260510090053 59 0 0.0 0.0 0.00 0.00 0.00 76 1008.7
20260510084542 59 0 0.0 0.0 0.00 0.00 0.00 75 1008.7
20260510083051 58 0 0.0 0.0 0.00 0.00 0.00 79 1008.8
20260510081542 58 0 0.0 0.0 0.00 0.00 0.00 80 1008.3
20260510080046 57 0 0.0 0.0 0.00 0.00 0.00 83 1008.1
20260510074547 57 0 0.0 0.0 0.00 0.00 0.00 82 1007.8
20260510073052 57 0 0.0 0.0 0.00 0.00 0.00 81 1007.8
20260510071543 58 0 0.0 0.0 0.00 0.00 0.00 80 1007.9
20260510070041 58 0 0.0 0.0 0.00 0.00 0.00 79 1007.7
20260510064540 58 0 0.0 0.0 0.00 0.00 0.00 78 1008.0
20260510063126 58 0 0.0 0.0 0.00 0.00 0.00 78 1007.9
20260510063044 58 0 0.0 0.0 0.00 0.00 0.00 78 1007.9
20260510061543 59 0 0.0 0.0 0.00 0.00 0.00 76 1008.0
20260510060045 59 0 0.0 0.0 0.00 0.00 0.00 75 1007.9
20260510054542 60 0 0.0 0.0 0.00 0.00 0.00 75 1008.1
20260510053041 61 0 0.0 0.0 0.00 0.00 0.00 73 1007.9
20260510051552 63 0 0.0 0.0 0.00 0.00 0.00 67 1008.0
20260510050044 59 0 0.0 0.0 0.00 0.00 0.00 76 1007.8
20260510044547 58 0 0.0 0.0 0.00 0.00 0.00 78 1007.6
20260510043045 58 0 0.0 0.0 0.00 0.00 0.00 77 1007.3
20260510041543 58 0 0.0 0.0 0.00 0.00 0.00 79 1007.5
20260510040039 58 0 0.0 0.0 0.00 0.00 0.00 77 1007.6
20260510034538 59 0 0.0 0.0 0.00 0.00 0.00 77 1007.4
20260510033043 59 0 0.0 0.0 0.00 0.00 0.00 77 1007.3
20260510031543 59 0 0.0 0.0 0.00 0.00 0.00 74 1007.1
20260510030052 60 0 0.0 0.0 0.00 0.00 0.00 79 1006.8
20260510024542 60 0 0.0 0.0 0.00 0.00 0.00 75 1006.6
20260510023038 61 0 0.0 0.0 0.00 0.00 0.00 76 1006.5
20260510021544 61 0 0.0 0.0 0.00 0.00 0.00 75 1006.3
20260510020044 62 0 0.0 0.0 0.00 0.00 0.00 73 1006.0
20260510014545 63 0 0.0 0.0 0.00 0.00 0.00 72 1005.9
20260510013042 64 0 0.0 0.0 0.00 0.00 0.00 69 1005.7
20260510011546 65 0 0.0 0.0 0.00 0.00 0.00 67 1005.6
20260510010038 67 0 0.0 0.0 0.00 0.00 0.00 66 1005.4
20260510004550 68 0 0.0 0.0 0.00 0.00 0.00 67 1005.2
20260510003044 71 0 0.0 0.0 0.00 0.00 0.00 62 1005.0
20260510001542 74 0 0.0 0.0 0.00 0.00 0.00 63 1005.1
20260510000043 76 0 0.0 0.0 0.00 0.00 0.00 54 1004.9
20260509234543 78 0 0.0 0.0 0.00 0.00 0.00 44 1004.9
20260509233038 79 0 0.0 0.0 0.00 0.00 0.00 41 1004.7
20260509231545 80 0 0.0 0.0 0.00 0.00 0.00 40 1004.8
20260509230038 81 0 0.0 0.0 0.00 0.00 0.00 36 1004.7
20260509224543 80 0 0.0 0.0 0.00 0.00 0.00 30 1004.7
20260509223044 81 0 0.0 0.0 0.00 0.00 0.00 31 1004.6
20260509221542 82 0 0.0 0.0 0.00 0.00 0.00 31 1004.5
20260509220041 82 0 0.0 0.0 0.00 0.00 0.00 31 1004.5
20260509214548 82 0 0.0 0.0 0.00 0.00 0.00 30 1004.5
20260509213055 80 0 0.0 0.0 0.00 0.00 0.00 31 1004.5
20260509211543 82 0 0.0 0.0 0.00 0.00 0.00 28 1004.7
20260509210058 82 0 0.0 0.0 0.00 0.00 0.00 32 1004.7
20260509204543 83 0 0.0 0.0 0.00 0.00 0.00 34 1004.9
20260509203043 81 0 0.0 0.0 0.00 0.00 0.00 39 1004.9
20260509201538 82 0 0.0 0.0 0.00 0.00 0.00 32 1005.1
20260509200038 83 0 0.0 0.0 0.00 0.00 0.00 37 1005.3
20260509194543 82 0 0.0 0.0 0.00 0.00 0.00 36 1005.4
20260509193045 81 0 0.0 0.0 0.00 0.00 0.00 36 1005.5
20260509191543 81 0 0.0 0.0 0.00 0.00 0.00 34 1005.6
20260509190045 82 0 0.0 0.0 0.00 0.00 0.00 38 1005.6
20260509184552 80 0 0.0 0.0 0.00 0.01 0.00 35 1005.5
20260509183051 81 0 0.0 0.0 0.00 0.01 0.00 39 1005.5
20260509181552 80 0 0.0 0.0 0.00 0.01 0.00 34 1005.5
20260509180047 80 0 0.0 0.0 0.00 0.01 0.00 36 1005.5